Weather History for Aiken, SC

Change the Weather History Date:

Saturday, July 13, 2013

  Actual Average Record
Temperature  
Mean Temperature 74 °F -  
Max Temperature 80 °F 93 °F 96 °F (2011)
Min Temperature 69 °F 70 °F 69 °F (2013)
Cooling Degree Days 10    
Growing Degree Days 24 (Base 50)    
Moisture  
Dew Point 72 °F    
Average Humidity 95    
Maximum Humidity 100    
Minimum Humidity 70    
Precipitation  
Precipitation 0.00 in - - ()
Sea Level Pressure  
Sea Level Pressure 30.06 in    
Wind  
Wind Speed 6 mph (ENE)    
Max Wind Speed 12 mph    
Max Gust Speed -    
Visibility 9 miles    
Events Rain    
Averages and records for this station are not official NWS values.
T = Trace of Precipitation, MM = Missing Value Source: NWS Daily Summary

Daily Weather History Graph

Daily Weather History Graph

Search for Another Location

Airport:

Trip Planner

Search our weather history database for the weather conditions in past years. The results will help you decide how hot, cold, wet, or windy it might be!

Date:

Astronomy

Jul. 13, 2013 Rise Set
Actual Time 6:26 AM EDT 8:38 PM EDT
Civil Twilight 5:57 AM EDT 9:06 PM EDT
Nautical Twilight 5:23 AM EDT 9:41 PM EDT
Astronomical Twilight 4:45 AM EDT 10:18 PM EDT
Moon 11:23 AM EDT (7/13) 11:37 PM EDT (7/13)
Length of Visible Light 15h 08m
Length of Day
14h 12m
Waxing Crescent, 25% of the Moon is Illuminated
Jul 13
Waxing Crescent
Jul 15
First Quarter
Jul 22
Full
Jul 29
Last Quarter
Aug 6
New

Hourly Weather History & Observations

Time (EDT) Temp. Heat Index Dew Point Humidity Pressure Visibility Wind Dir Wind Speed Gust Speed Precip Events Conditions
12:15 AM 69.8 °F - 68.0 °F 94% 30.02 in 10.0 mi Calm Calm - N/A   Clear
12:35 AM 69.8 °F - 69.8 °F 100% 30.02 in 10.0 mi NE 5.8 mph - N/A   Scattered Clouds
12:55 AM 69.8 °F - 69.8 °F 100% 30.02 in 10.0 mi ENE 4.6 mph - N/A   Scattered Clouds
1:15 AM 69.8 °F - 69.8 °F 100% 30.03 in 10.0 mi NE 5.8 mph - N/A   Scattered Clouds
1:35 AM 69.8 °F - 69.8 °F 100% 30.03 in 10.0 mi NE 4.6 mph - N/A   Mostly Cloudy
1:55 AM 69.8 °F - 69.8 °F 100% 30.03 in 10.0 mi ENE 5.8 mph - N/A   Overcast
2:15 AM 69.8 °F - 69.8 °F 100% 30.03 in 10.0 mi NE 5.8 mph - N/A   Overcast
2:35 AM 69.8 °F - 69.8 °F 100% 30.02 in 10.0 mi ENE 6.9 mph - N/A   Scattered Clouds
2:55 AM 69.8 °F - 69.8 °F 100% 30.02 in 10.0 mi ENE 8.1 mph - N/A   Clear
3:15 AM 69.8 °F - 69.8 °F 100% 30.01 in 10.0 mi ENE 9.2 mph - N/A   Scattered Clouds
3:35 AM 69.8 °F - 69.8 °F 100% 30.02 in 10.0 mi NE 8.1 mph - N/A   Scattered Clouds
3:55 AM 69.8 °F - 69.8 °F 100% 30.02 in 10.0 mi NE 5.8 mph - N/A   Clear
4:15 AM 69.8 °F - 69.8 °F 100% 30.01 in 10.0 mi ENE 5.8 mph - N/A   Mostly Cloudy
4:35 AM 69.8 °F - 69.8 °F 100% 30.01 in 10.0 mi NE 6.9 mph - N/A   Scattered Clouds
4:55 AM 69.8 °F - 69.8 °F 100% 30.02 in 10.0 mi ENE 6.9 mph - N/A   Mostly Cloudy
5:15 AM 69.8 °F - 69.8 °F 100% 30.02 in 10.0 mi ENE 5.8 mph - N/A   Scattered Clouds
5:35 AM 69.8 °F - 69.8 °F 100% 30.02 in 10.0 mi ENE 4.6 mph - N/A   Scattered Clouds
5:55 AM 69.8 °F - 69.8 °F 100% 30.03 in 10.0 mi ENE 5.8 mph - N/A   Mostly Cloudy
6:15 AM 69.8 °F - 69.8 °F 100% 30.03 in 10.0 mi NE 5.8 mph - N/A   Mostly Cloudy
6:35 AM 69.8 °F - 69.8 °F 100% 30.04 in 10.0 mi NNE 5.8 mph - N/A   Overcast
6:55 AM 69.8 °F - 69.8 °F 100% 30.05 in 10.0 mi NE 5.8 mph - N/A   Overcast
7:15 AM 69.8 °F - 69.8 °F 100% 30.05 in 7.0 mi NE 9.2 mph - N/A   Overcast
7:35 AM 69.8 °F - 69.8 °F 100% 30.05 in 5.0 mi ENE 6.9 mph - N/A   Overcast
7:55 AM 69.8 °F - 69.8 °F 100% 30.05 in 5.0 mi ENE 8.1 mph - N/A   Overcast
8:15 AM 71.6 °F - 71.6 °F 100% 30.06 in 5.0 mi ENE 8.1 mph - N/A   Overcast
8:35 AM 71.6 °F - 71.6 °F 100% 30.07 in 7.0 mi ENE 8.1 mph - N/A   Overcast
8:55 AM 71.6 °F - 71.6 °F 100% 30.08 in 7.0 mi NE 8.1 mph - N/A   Overcast
9:15 AM 71.6 °F - 71.6 °F 100% 30.08 in 7.0 mi NE 10.4 mph - N/A   Overcast
9:35 AM 71.6 °F - 71.6 °F 100% 30.08 in 10.0 mi NE 6.9 mph - N/A   Overcast
9:55 AM 73.4 °F - 73.4 °F 100% 30.08 in 10.0 mi ENE 8.1 mph - N/A   Overcast
10:15 AM 73.4 °F - 73.4 °F 100% 30.08 in 10.0 mi ENE 8.1 mph - N/A   Overcast
10:35 AM 73.4 °F - 73.4 °F 100% 30.09 in 10.0 mi NE 4.6 mph - N/A   Overcast
10:55 AM 73.4 °F - 73.4 °F 100% 30.09 in 10.0 mi ENE 5.8 mph - N/A   Overcast
11:15 AM 73.4 °F - 73.4 °F 100% 30.10 in 10.0 mi ENE 6.9 mph - N/A   Overcast
11:35 AM 75.2 °F - 75.2 °F 100% 30.10 in 10.0 mi NE 6.9 mph - N/A   Mostly Cloudy
11:55 AM 75.2 °F - 75.2 °F 100% 30.10 in 7.0 mi ENE 6.9 mph - N/A Rain Light Rain
12:15 PM 77.0 °F - 77.0 °F 100% 30.10 in 7.0 mi ENE 6.9 mph - N/A Rain Light Rain
12:35 PM 77.0 °F - 75.2 °F 94% 30.10 in 10.0 mi ENE 5.8 mph - N/A   Overcast
12:55 PM 78.8 °F - 73.4 °F 83% 30.09 in 10.0 mi ENE 5.8 mph - N/A   Overcast
1:15 PM 77.0 °F - 71.6 °F 83% 30.09 in 10.0 mi NE 8.1 mph - N/A   Overcast
1:35 PM 78.8 °F - 71.6 °F 78% 30.09 in 10.0 mi East 6.9 mph - N/A   Mostly Cloudy
1:55 PM 78.8 °F - 69.8 °F 74% 30.09 in 10.0 mi ENE 9.2 mph - N/A   Scattered Clouds
2:15 PM 78.8 °F - 69.8 °F 74% 30.08 in 10.0 mi ENE 11.5 mph - N/A   Mostly Cloudy
2:35 PM 78.8 °F - 71.6 °F 78% 30.08 in 10.0 mi NE 6.9 mph - N/A   Mostly Cloudy
2:55 PM 80.6 °F 83.9 °F 69.8 °F 70% 30.08 in 10.0 mi NNE 9.2 mph - N/A   Mostly Cloudy
3:15 PM 78.8 °F - 69.8 °F 74% 30.08 in 10.0 mi NE 4.6 mph - N/A   Mostly Cloudy
3:35 PM 77.0 °F - 71.6 °F 83% 30.08 in 10.0 mi NE 4.6 mph - N/A Rain Light Rain
3:55 PM 78.8 °F - 71.6 °F 78% 30.08 in 10.0 mi North 5.8 mph - N/A   Overcast
4:15 PM 78.8 °F - 69.8 °F 74% 30.07 in 10.0 mi NE 6.9 mph - N/A Rain Light Rain
4:35 PM 78.8 °F - 69.8 °F 74% 30.07 in 10.0 mi NE 9.2 mph - N/A   Scattered Clouds
4:55 PM 78.8 °F - 69.8 °F 74% 30.06 in 10.0 mi NE 4.6 mph - N/A   Clear
5:15 PM 77.0 °F - 69.8 °F 78% 30.06 in 10.0 mi NNE 4.6 mph - N/A   Clear
5:35 PM 77.0 °F - 71.6 °F 83% 30.07 in 10.0 mi NE 4.6 mph - N/A Rain Light Rain
5:55 PM 77.0 °F - 73.4 °F 89% 30.07 in 10.0 mi NE 6.9 mph - N/A Rain Light Rain
6:15 PM 75.2 °F - 75.2 °F 100% 30.07 in 7.0 mi NE 4.6 mph - N/A Rain Rain
6:35 PM 75.2 °F - 75.2 °F 100% 30.07 in 5.0 mi ENE 4.6 mph - N/A Rain Heavy Rain
6:55 PM 73.4 °F - 73.4 °F 100% 30.07 in 5.0 mi ENE 5.8 mph - N/A Rain Rain
7:15 PM 73.4 °F - 73.4 °F 100% 30.08 in 7.0 mi East 5.8 mph - N/A Rain Light Rain
7:35 PM 73.4 °F - 73.4 °F 100% 30.09 in 7.0 mi East 3.5 mph - N/A Rain Light Rain
7:55 PM 73.4 °F - 73.4 °F 100% 30.08 in 7.0 mi East 4.6 mph - N/A   Clear
8:15 PM 73.4 °F - 73.4 °F 100% 30.09 in 7.0 mi East 3.5 mph - N/A   Scattered Clouds
8:35 PM 73.4 °F - 73.4 °F 100% 30.09 in 7.0 mi ENE 5.8 mph - N/A   Scattered Clouds
8:55 PM 73.4 °F - 73.4 °F 100% 30.10 in 10.0 mi ENE 4.6 mph - N/A   Clear
9:15 PM 73.4 °F - 73.4 °F 100% 30.09 in 10.0 mi ENE 6.9 mph - N/A   Mostly Cloudy
9:35 PM 73.4 °F - 73.4 °F 100% 30.08 in 10.0 mi ENE 8.1 mph - N/A   Scattered Clouds
9:55 PM 71.6 °F - 71.6 °F 100% 30.08 in 10.0 mi ENE 6.9 mph - N/A   Clear
10:15 PM 71.6 °F - 71.6 °F 100% 30.08 in 10.0 mi ENE 5.8 mph - N/A   Clear
10:35 PM 71.6 °F - 71.6 °F 100% 30.09 in 10.0 mi ENE 5.8 mph - N/A   Clear
10:55 PM 71.6 °F - 71.6 °F 100% 30.10 in 10.0 mi East 5.8 mph - N/A   Clear
11:15 PM 71.6 °F - 71.6 °F 100% 30.10 in 10.0 mi ESE 3.5 mph - N/A   Clear
11:35 PM 71.6 °F - 71.6 °F 100% 30.10 in 10.0 mi East 3.5 mph - N/A   Clear
11:55 PM 71.6 °F - 71.6 °F 100% 30.10 in 10.0 mi East 3.5 mph - N/A   Scattered Clouds